OBJECT A, 65226

Orbit data source: Space-Track

You're viewing an Uncataloged Satellite

Recently launched and/or uncataloged satellites may have evolving metadata. Metadata may include but not limited to: Owner, Maufacturer, Bus, Motor, and Mission.

OBJECT A, 65226 is a satellite owned by PLA GAD (CN) in LEO that was launched on Sun, 17 Aug 2025 UTC via a CHANG ZHENG 4C launch vehicle from the Xichang Space Center, China (XSC). Unknown objects in Earth's orbit typically refer to objects detected orbiting the Earth but have not yet been identified or cataloged. These objects could be anything from previously untracked satellites, spent rocket stages, debris from satellite collisions, or even natural meteoroids temporarily captured by Earth's gravity.

Not visible in the next 10 days
Identifier
65226, 2025-177A
Orbit
LEO
Country
Flag of CNCN / PRC
Related business
Manufacturer
IMI/CAS
Mission
Operational Defense Earth Obs Sci
Bus & Motor
Unknown
Mass
~2,000 kg wet, ~2,000 kg dry
Launch date (UTC)
2025-08-17 (10 months ago)
Launch vehicle
CHANG ZHENG 4C
Launch site
Xichang Space Center, China (XSC)
Object type
Unknown
Shape & HBR
Box + 2 Pan, 1.1 m
Radar Cross Section
11.063 m², Large (>1 m²)

Expand to show TLE details & history
Last TLE update: 8 hours ago

TLE from 8 hours ago
0 OBJECT A
1 65226U 25177A   26171.52004387  .00000538  00000-0  40972-4 0  9991
2 65226  10.9997 272.0542 0003611 340.9291  19.0801 14.29399690 44019
Epoch: 2026-06-20T12:28Z
TLE epoch observation values (Epoch: 2026-06-20T12:28:51.790Z)
Latitude
-0.00001°
Longitude
176.10485°
Altitude
788.457 km
Speed
7.464 km/s
True Right ascension
18h 08m 12s
True Declination
0° 00' 00"
Sunlit
Object was in full shadow at epoch
Visualization orbit readout
Latitude
Unknown
Longitude
Unknown
Altitude
Unknown
Speed
Unknown
Apparent Right ascension
Unknown
Apparent Declination
Unknown
Sunlit
N/A
Visualization observer readout
Local Sidereal Time
07:17:33
Azimuth
Unknown
Elevation
Unknown
Doppler factor
Unknown
Orbital elements
Apogee altitude
802.143 km
Perigee altitude
796.96 km
Semi-major axis
7,177.689 km
Eccentricity
0.00036
Inclination
10.9997°
RAAN
272.0542°
Arg. of periapsis
340.9291°
True anomaly
19.09363°
Mean anomaly
19.0801°
Eccentric anomaly
19.08687°
Mean motion
3.56916 °/min
Orbital period
100.86 mins
BSTAR
0.000040972
Loading maneuver chart data...
Computing Atmospheric mass density...
Loading historical data...
Loading historical data...
Loading historical data...
Loading historical data...
Loading historical data...
Loading historical data...
Loading historical data...
Other satellites on launch #177 in the year 2025 (2025-08-17 UTC)

Documentation

Showing up to 5 results
|